Regional Weather Roundup
Issued by NWS Newport/Morehead, NC

Current Version | Previous Version | Graphics & Text | Print | Product List | Glossary Off
Versions: 1 2 3 4 5 6 7 8 9 10 11 12 13 14 15 16 17 18 19 20 21 22 23 24 25 26 27 28 29 30 31 32 33 34 35 36 37 38 39 40 41 42 43 44 45 46 47 48 49 50

000
ASUS42 KMHX 280724
RWRMHX
WEATHER ROUNDUP FOR EASTERN NORTH CAROLINA
NATIONAL WEATHER SERVICE NEWPORT/MOREHEAD CITY NC
300 AM EDT SAT MAR 28 2015

NOTE: "FAIR" INDICATES FEW OR NO CLOUDS BELOW 12,000 FEET
WITH NO SIGNIFICANT WEATHER AND/OR OBSTRUCTIONS TO VISIBILITY

NCZ015>017-031-032-045>047-102-103-280800-
NORTH COAST

CITY           SKY/WX    TMP DP  RH WIND       PRES   REMARKS
EDENTON        CLOUDY    40  38  90 NW8       29.80R
ELIZABETH CITY CLOUDY    41  38  89 NW10      29.78S
KITTY HAWK     CLOUDY    40  37  89 N10       29.74R
MANTEO         CLOUDY    40  37  87 N12G18    29.76S

$$

NCZ045>047-081-094-103-104-280800-
CENTRAL COAST

CITY           SKY/WX    TMP DP  RH WIND       PRES   REMARKS
FRISCO         CLOUDY    42  36  79 N12G26    29.75R
SWANQUARTER      N/A     41 N/A N/A NW12      29.74S

$$

NCZ095-097-098-100-101-280800-
SOUTHERN COAST

CITY           SKY/WX    TMP DP  RH WIND       PRES   REMARKS
BEAUFORT       CLOUDY    44  41  89 N9        29.80S
CEDAR ISLAND     N/A     45 N/A N/A NW12G26   29.82R
JACKSONVILLE   PTCLDY    41  37  86 NW8       29.83R
PINEY ISLAND   CLOUDY   N/A N/A N/A N14       29.78S
WILMINGTON     CLOUDY    43  40  89 NW10      29.85R


$$

NCZ011>013-027>030-043-044-078>080-089-090>093-098-280800-
COASTAL PLAIN

CITY           SKY/WX    TMP DP  RH WIND       PRES   REMARKS
AHOSKIE        CLEAR     37  36  96 CALM      29.83S FOG
CLINTON        DRIZZLE   43  41  93 W3        29.87R
ELIZABETHTOWN  CLOUDY    44  42  93 W3        29.87R
GOLDSBORO      MIX PCPN  41  41 100 NW10      29.83R
GREENVILLE     PTCLDY    37  37 100 NW3       29.87R
HAVELOCK       CLOUDY    44  39  82 NW13      29.81S
KENANSVILLE    CLOUDY    41  38  91 NW5       29.85S
KINSTON        MOCLDY    39  38  93 CALM      29.86R
NEW BERN       CLOUDY    42  37  82 NW10      29.83R
RICHLANDS      MOCLDY    39  34  81 CALM      29.85R
ROCKY MOUNT    LGT RAIN  41  38  89 NW6       29.85R
WASHINGTON     CLOUDY    40  37  89 NW6       29.83R
WHITEVILLE     CLOUDY    44  42  91 CALM      29.87S

$$

AMZ130-135-150-152-154-156-158-170-250-252-270-ANZ085-086-088-633-658-670-280800-
MARINE OBSERVATIONS

STATION/POSITION TIME  TEMP    WIND        PRES    WAVE   SWELL
                       AIR SEA DIR/SP/G            HT/PER HT/PER
                 (UTC) (F)     (DEG/KT/KT) (MB)    (FT/S) (FT/S)
CHESAPEAKE LIGHT 0700   40     330/ 18/ 19 1008.1
64 E VA BEACH    0650   45 57  360/ 29/ 35 1004.4   10/ 8
DUCK             0600   40 41   10/ 19/ 23 1006.0
2 E DUCK         0611      41                N/A     6/ 6   2/11
10 NE DUCK       NOT AVBL
OREGON INLET     0600   40 45  350/ 17/ 21 1006.6
HATTERAS CG      0700   45 54   10/ 21/ 28 1007.4
CAPE LOOKOUT     0700   44     330/ 15/ 18 1008.3
BEAUFORT LAB     0600   44 57  340/ 10/ 17 1007.7
27 SE WRIGHTSVLE 0600   45 64  350/ 16/ 19 1010.2
5 SE WRIGHTSVLE  0700   46 56  330/ 17/ 19 1010.4
225 S CAPE HAT   0650   69 69  290/ 21/ 27 1004.9    9/ 8
41 SE CHARLESTON 0650   53 69  340/ 19/ 25 1010.9    5/ 5   2/ 8

$$


USA.gov is the U.S. government's official web portal to all federal, state and local government web resources and services.